Flag for U.S.A. Weather past 2 weeks in Escondido, California, U.S.A.

Now
64 °F

Clear.


Feels Like: 64 °F
Forecast: 66 / 87 °F
Wind: 3 mph from Southeast

Location: Ramona Airport

Current Time: Jul 28, 2014 at 6:59:35 AM

Latest Report: Jul 28, 2014 at 5:53 AM


Visibility: 10 mi

Pressure: 30.02 "Hg

Humidity: 84%

Dew point: 59 °F

Location of EscondidoLocation

Historic Weather in Escondido — Graph

°F

Escondido temperature yesterday

Maximum temperature yesterday: 87 °F (at 2:53 PM)
Minimum temperature yesterday: 64 °F (at 4:53 AM)
Average temperature yesterday: 74 °F

Past Weeks' High & Low Weather Summary

 TemperatureHumidityPressure
High99 °F (Jul 24, 12:53 PM)97% (Jul 15, 7:53 AM)30.07 "Hg (Jul 15, 7:53 AM)
Low55 °F (Jul 22, 2:53 AM)18% (Jul 24, 5:53 PM)29.75 "Hg (Jul 24, 4:53 PM)
Average71 °F66%29.95 "Hg
* Reported Jul 13 5:53 AM — Jul 28 5:53 AM, Escondido, Weather by CustomWeather, © 2014

Note: Actual official high and low records may vary slightly from our data, if they occured in-between our weather recording intervals... More about our weather records

Advertising

Escondido weather history for previous 24 hours

 ConditionsComfort  
Time TempWeatherWind HumidityBarometerVisibility
5:53 AM
Jul 28
64 °FClear.3 mph84%30.02 "Hg10 mi
4:53 AM64 °FPassing clouds.3 mph87%30.01 "Hg10 mi
3:53 AM64 °FPassing clouds.3 mph84%30.01 "Hg10 mi
2:53 AM66 °FPassing clouds.No wind81%30.00 "Hg10 mi
1:53 AM66 °FPassing clouds.3 mph75%30.01 "Hg10 mi
12:53 AM69 °FClear.No wind70%30.00 "Hg10 mi
11:53 PM
Jul 27
70 °FClear.No wind71%30.00 "Hg10 mi
10:53 PM70 °FMild.No wind71%29.99 "Hg10 mi
9:53 PM70 °FClear.No wind73%29.99 "Hg10 mi
8:53 PM70 °FClear.5 mph76%29.96 "Hg10 mi
7:53 PM71 °FSunny.5 mph76%29.94 "Hg10 mi
6:53 PM76 °FSunny.10 mph69%29.92 "Hg10 mi
5:53 PM83 °FPassing clouds.6 mph55%29.89 "Hg10 mi
4:53 PM87 °FOvercast.6 mph40%29.93 "Hg10 mi
3:53 PM87 °FSunny.8 mph39%29.93 "Hg10 mi
2:53 PM87 °FSunny.9 mph40%29.95 "Hg10 mi
1:53 PM85 °FSunny.8 mph48%29.97 "Hg10 mi
12:53 PM85 °FSunny.17 mph51%29.98 "Hg10 mi
11:53 AM82 °FWarm.6 mph51%29.99 "Hg10 mi
10:53 AM80 °FSunny.7 mph54%30.01 "Hg10 mi
9:53 AM77 °FSunny.7 mph58%29.99 "Hg10 mi
8:53 AM71 °FScattered clouds.6 mph73%30.00 "Hg10 mi
7:53 AM70 °FSunny.No wind79%29.98 "Hg9 mi
6:53 AM66 °FClear.No wind84%29.97 "Hg8 mi
Weather by CustomWeather, © 2014

See weather overviewHow to use our weather pages